When you browse on this site, cookies collect data to enhance your experience and personalize the content and advertising you see.
Visit our Privacy Policy to learn more. By continuing to use the site, you agree to this use of cookies and data.
  • In Österreich
  • Länderverzeichnis
  • Für 7 Tage
  • Wassertemperatur
  • Satellitenkarten
  • Wetterkarte
  • News
  • Widgets
  • user-avatar
    Anmelden

    Stündliche Wetter Statesboro

    Heute, 19 Februar, Dienstag

    Zeit Temperatur Niederschläge Wind Luftdruck Luftfeuchtigkeit
    00:00 +14°C° 0 mm 3 m/S 763 mmHg 42%
    01:00 +15°C° 0 mm 2 m/S 763 mmHg 40%
    02:00 +15°C° 0 mm 2 m/S 763 mmHg 43%
    03:00 +13°C° 0 mm 3 m/S 763 mmHg 45%
    04:00 +13°C° 0 mm 3 m/S 763 mmHg 48%
    05:00 +13°C° 0 mm 4 m/S 764 mmHg 52%
    06:00 +13°C° 0 mm 5 m/S 765 mmHg 55%
    07:00 +13°C° 0 mm 5 m/S 765 mmHg 56%
    08:00 +11°C° 0 mm 6 m/S 766 mmHg 57%
    09:00 +11°C° 0 mm 6 m/S 766 mmHg 58%
    10:00 +10°C° 0 mm 6 m/S 767 mmHg 59%
    11:00 +10°C° 0 mm 6 m/S 766 mmHg 57%
    12:00 +10°C° 0 mm 6 m/S 766 mmHg 55%
    13:00 +10°C° 0 mm 6 m/S 766 mmHg 53%
    14:00 +10°C° 0 mm 6 m/S 766 mmHg 53%
    15:00 +10°C° 0 mm 6 m/S 765 mmHg 53%
    16:00 +9°C° 0 mm 6 m/S 765 mmHg 54%
    17:00 +9°C° 0 mm 6 m/S 765 mmHg 59%
    18:00 +9°C° 0 mm 6 m/S 765 mmHg 65%
    19:00 +9°C° 0 mm 6 m/S 765 mmHg 71%
    20:00 +8°C° 0.5 mm 6 m/S 765 mmHg 76%
    21:00 +6°C° 0.5 mm 7 m/S 765 mmHg 81%
    22:00 +5°C° 0.5 mm 7 m/S 766 mmHg 87%
    23:00 +5°C° 0.3 mm 6 m/S 765 mmHg 88%

    Morgen, 20 Februar, Mittwoch

    Zeit Temperatur Niederschläge Wind Luftdruck Luftfeuchtigkeit
    00:00 +7°C° 0.3 mm 5 m/S 765 mmHg 89%
    01:00 +7°C° 0.3 mm 5 m/S 764 mmHg 89%
    02:00 +7°C° 0.8 mm 5 m/S 764 mmHg 90%
    03:00 +8°C° 0.8 mm 5 m/S 763 mmHg 91%
    04:00 +8°C° 0.8 mm 5 m/S 762 mmHg 92%
    05:00 +8°C° 0.2 mm 5 m/S 762 mmHg 93%
    06:00 +9°C° 0.2 mm 5 m/S 762 mmHg 94%
    07:00 +10°C° 0.2 mm 5 m/S 761 mmHg 94%
    08:00 +12°C° 0 mm 4 m/S 761 mmHg 94%
    09:00 +13°C° 0 mm 4 m/S 761 mmHg 93%
    10:00 +14°C° 0 mm 3 m/S 761 mmHg 92%
    11:00 +16°C° 0 mm 3 m/S 761 mmHg 92%
    12:00 +16°C° 0 mm 3 m/S 761 mmHg 92%
    13:00 +16°C° 0 mm 2 m/S 760 mmHg 91%
    14:00 +18°C° 0 mm 2 m/S 760 mmHg 90%
    15:00 +19°C° 0 mm 2 m/S 759 mmHg 89%
    16:00 +21°C° 0 mm 1 m/S 758 mmHg 87%
    17:00 +20°C° 0 mm 1 m/S 758 mmHg 90%
    18:00 +19°C° 0 mm 2 m/S 758 mmHg 92%
    19:00 +18°C° 0 mm 2 m/S 758 mmHg 95%
    20:00 +18°C° 0 mm 2 m/S 758 mmHg 96%
    21:00 +18°C° 0 mm 2 m/S 759 mmHg 97%
    22:00 +18°C° 0 mm 2 m/S 759 mmHg 98%
    23:00 +18°C° 0 mm 2 m/S 758 mmHg 98%

    übermorgen, 21 Februar, Donnerstag

    Zeit Temperatur Niederschläge Wind Luftdruck Luftfeuchtigkeit
    00:00 +18°C° 0 mm 2 m/S 758 mmHg 98%
    01:00 +18°C° 0 mm 2 m/S 758 mmHg 98%
    02:00 +18°C° 0 mm 2 m/S 758 mmHg 98%
    03:00 +18°C° 0 mm 3 m/S 758 mmHg 98%
    04:00 +18°C° 0 mm 3 m/S 757 mmHg 98%
    05:00 +18°C° 0 mm 3 m/S 758 mmHg 98%
    06:00 +18°C° 0 mm 3 m/S 758 mmHg 97%
    07:00 +19°C° 0 mm 3 m/S 758 mmHg 97%
    08:00 +20°C° 0 mm 3 m/S 758 mmHg 90%
    09:00 +22°C° 0 mm 4 m/S 759 mmHg 82%
    10:00 +25°C° 0 mm 5 m/S 759 mmHg 75%
    11:00 +26°C° 0 mm 5 m/S 759 mmHg 70%
    12:00 +28°C° 0 mm 5 m/S 759 mmHg 66%
    13:00 +29°C° 0 mm 5 m/S 758 mmHg 61%
    14:00 +29°C° 0 mm 4 m/S 758 mmHg 60%
    15:00 +29°C° 0 mm 4 m/S 757 mmHg 58%
    16:00 +29°C° 0 mm 3 m/S 757 mmHg 57%
    17:00 +28°C° 0 mm 2 m/S 757 mmHg 61%
    18:00 +27°C° 0 mm 2 m/S 758 mmHg 66%
    19:00 +25°C° 0 mm 1 m/S 758 mmHg 71%
    20:00 +24°C° 0 mm 1 m/S 758 mmHg 73%
    21:00 +24°C° 0 mm 1 m/S 759 mmHg 76%
    22:00 +23°C° 0 mm 1 m/S 759 mmHg 79%
    23:00 +23°C° 0 mm 2 m/S 759 mmHg 80%

    22 Februar, Freitag

    Zeit Temperatur Niederschläge Wind Luftdruck Luftfeuchtigkeit
    00:00 +23°C° 0 mm 2 m/S 759 mmHg 81%
    01:00 +21°C° 0 mm 2 m/S 759 mmHg 83%
    02:00 +21°C° 0 mm 2 m/S 759 mmHg 84%
    03:00 +21°C° 0 mm 2 m/S 759 mmHg 85%
    04:00 +22°C° 0 mm 1 m/S 759 mmHg 86%
    05:00 +22°C° 0.3 mm 1 m/S 759 mmHg 88%
    06:00 +21°C° 0.3 mm 1 m/S 760 mmHg 90%
    07:00 +21°C° 0.3 mm 1 m/S 760 mmHg 92%
    08:00 +22°C° 0.6 mm 1 m/S 761 mmHg 90%
    09:00 +23°C° 0.6 mm 1 m/S 761 mmHg 89%
    10:00 +21°C° 0.6 mm 0 m/S 762 mmHg 87%
    11:00 +24°C° 0.2 mm 1 m/S 761 mmHg 85%
    12:00 +25°C° 0.2 mm 2 m/S 761 mmHg 82%
    13:00 +25°C° 0.2 mm 3 m/S 761 mmHg 80%
    14:00 +25°C° 1 mm 3 m/S 761 mmHg 78%
    15:00 +25°C° 1 mm 4 m/S 761 mmHg 77%
    16:00 +25°C° 1 mm 4 m/S 760 mmHg 76%
    17:00 +23°C° 0.2 mm 4 m/S 761 mmHg 80%
    18:00 +21°C° 0.2 mm 4 m/S 761 mmHg 84%
    19:00 +20°C° 0.2 mm 4 m/S 762 mmHg 89%
    20:00 +19°C° 0 mm 4 m/S 762 mmHg 88%
    21:00 +19°C° 0 mm 4 m/S 762 mmHg 88%
    22:00 +18°C° 0 mm 4 m/S 763 mmHg 88%
    23:00 +18°C° 0.3 mm 4 m/S 763 mmHg 89%

    23 Februar, Samstag

    Zeit Temperatur Niederschläge Wind Luftdruck Luftfeuchtigkeit
    00:00 +17°C° 0.3 mm 4 m/S 762 mmHg 90%
    01:00 +15°C° 0.3 mm 4 m/S 762 mmHg 91%
    02:00 +16°C° 0.2 mm 3 m/S 762 mmHg 91%
    03:00 +16°C° 0.2 mm 3 m/S 762 mmHg 92%
    04:00 +14°C° 0.2 mm 3 m/S 761 mmHg 93%
    05:00 +14°C° 0 mm 3 m/S 761 mmHg 93%
    06:00 +14°C° 0 mm 3 m/S 761 mmHg 93%
    07:00 +14°C° 0 mm 3 m/S 761 mmHg 93%
    08:00 +14°C° 0 mm 3 m/S 762 mmHg 92%
    09:00 +16°C° 0 mm 3 m/S 762 mmHg 91%
    10:00 +16°C° 0 mm 2 m/S 762 mmHg 90%
    11:00 +18°C° 0 mm 2 m/S 761 mmHg 86%
    12:00 +20°C° 0 mm 2 m/S 761 mmHg 81%
    13:00 +23°C° 0 mm 2 m/S 760 mmHg 77%
    14:00 +24°C° 0 mm 2 m/S 759 mmHg 75%
    15:00 +25°C° 0 mm 2 m/S 759 mmHg 72%
    16:00 +26°C° 0 mm 2 m/S 758 mmHg 70%
    17:00 +25°C° 0 mm 2 m/S 758 mmHg 75%
    18:00 +24°C° 0 mm 2 m/S 758 mmHg 81%
    19:00 +21°C° 0 mm 3 m/S 758 mmHg 87%
    20:00 +21°C° 0 mm 3 m/S 758 mmHg 89%
    21:00 +20°C° 0 mm 3 m/S 758 mmHg 92%
    22:00 +20°C° 0 mm 3 m/S 758 mmHg 94%
    23:00 +19°C° 0 mm 3 m/S 757 mmHg 95%

    24 Februar, Sonntag

    Zeit Temperatur Niederschläge Wind Luftdruck Luftfeuchtigkeit
    00:00 +19°C° 0 mm 3 m/S 757 mmHg 95%
    01:00 +19°C° 0 mm 3 m/S 756 mmHg 95%
    02:00 +19°C° 0 mm 3 m/S 756 mmHg 93%
    03:00 +19°C° 0 mm 4 m/S 755 mmHg 92%
    04:00 +19°C° 0 mm 4 m/S 755 mmHg 90%
    05:00 +19°C° 0 mm 4 m/S 755 mmHg 90%
    06:00 +19°C° 0 mm 4 m/S 755 mmHg 91%
    07:00 +19°C° 0 mm 4 m/S 755 mmHg 91%
    08:00 +21°C° 0 mm 5 m/S 755 mmHg 86%
    09:00 +22°C° 0 mm 6 m/S 755 mmHg 82%
    10:00 +24°C° 0 mm 7 m/S 756 mmHg 77%
    11:00 +24°C° 0.2 mm 7 m/S 755 mmHg 77%
    12:00 +24°C° 0.2 mm 7 m/S 755 mmHg 77%
    13:00 +24°C° 0.2 mm 7 m/S 755 mmHg 76%
    14:00 +24°C° 0.2 mm 6 m/S 754 mmHg 75%
    15:00 +24°C° 0.2 mm 6 m/S 754 mmHg 73%
    16:00 +25°C° 0.2 mm 5 m/S 754 mmHg 72%
    17:00 +23°C° 0 mm 5 m/S 754 mmHg 68%
    18:00 +22°C° 0 mm 4 m/S 755 mmHg 64%
    19:00 +21°C° 0 mm 3 m/S 755 mmHg 60%
    20:00 +20°C° 0 mm 3 m/S 756 mmHg 58%
    21:00 +19°C° 0 mm 3 m/S 756 mmHg 55%
    22:00 +18°C° 0 mm 3 m/S 757 mmHg 53%
    23:00 +17°C° 0 mm 3 m/S 757 mmHg 53%
    Mehr zeigen